Météo par heure à Alisovo

Ce jour, 15 Mai, Samedi

Heure Température Précipitation Vent Pression Humidité
00:00 +15°C° 0 mm 2 m/s 738 mmHg 93%
01:00 +15°C° 0 mm 2 m/s 738 mmHg 93%
02:00 +15°C° 0 mm 2 m/s 738 mmHg 93%
03:00 +15°C° 0 mm 2 m/s 738 mmHg 93%
04:00 +15°C° 0 mm 2 m/s 738 mmHg 93%
05:00 +14°C° 0 mm 3 m/s 738 mmHg 94%
06:00 +15°C° 0 mm 4 m/s 738 mmHg 89%
07:00 +17°C° 0 mm 4 m/s 739 mmHg 85%
08:00 +17°C° 0 mm 5 m/s 739 mmHg 80%
09:00 +19°C° 0 mm 5 m/s 739 mmHg 74%
10:00 +20°C° 0 mm 5 m/s 739 mmHg 68%
11:00 +21°C° 0 mm 5 m/s 740 mmHg 62%
12:00 +21°C° 0.1 mm 6 m/s 739 mmHg 62%
13:00 +21°C° 0.1 mm 6 m/s 739 mmHg 61%
14:00 +21°C° 0.1 mm 6 m/s 739 mmHg 61%
15:00 +20°C° 0.3 mm 6 m/s 740 mmHg 66%
16:00 +20°C° 0.3 mm 6 m/s 740 mmHg 71%
17:00 +19°C° 0.3 mm 6 m/s 740 mmHg 76%
18:00 +17°C° 0 mm 5 m/s 740 mmHg 81%
19:00 +15°C° 0 mm 4 m/s 740 mmHg 85%
20:00 +14°C° 0 mm 3 m/s 740 mmHg 90%
21:00 +13°C° 0 mm 3 m/s 740 mmHg 91%
22:00 +13°C° 0 mm 3 m/s 740 mmHg 91%
23:00 +12°C° 0 mm 3 m/s 741 mmHg 92%

Demain, 16 Mai, Dimanche

Heure Température Précipitation Vent Pression Humidité
00:00 +12°C° 0 mm 3 m/s 741 mmHg 92%
01:00 +12°C° 0 mm 3 m/s 741 mmHg 92%
02:00 +12°C° 0 mm 2 m/s 741 mmHg 92%
03:00 +13°C° 0 mm 2 m/s 741 mmHg 91%
04:00 +13°C° 0 mm 2 m/s 741 mmHg 90%
05:00 +14°C° 0 mm 2 m/s 742 mmHg 89%
06:00 +14°C° 0 mm 3 m/s 742 mmHg 85%
07:00 +16°C° 0 mm 3 m/s 742 mmHg 80%
08:00 +18°C° 0 mm 3 m/s 742 mmHg 76%
09:00 +19°C° 0 mm 3 m/s 742 mmHg 71%
10:00 +20°C° 0 mm 3 m/s 742 mmHg 66%
11:00 +21°C° 0 mm 4 m/s 742 mmHg 60%
12:00 +22°C° 0 mm 3 m/s 742 mmHg 59%
13:00 +22°C° 0 mm 3 m/s 742 mmHg 57%
14:00 +24°C° 0 mm 3 m/s 742 mmHg 55%
15:00 +22°C° 0 mm 3 m/s 742 mmHg 58%
16:00 +23°C° 0 mm 2 m/s 742 mmHg 62%
17:00 +23°C° 0 mm 1 m/s 742 mmHg 65%
18:00 +22°C° 0 mm 1 m/s 742 mmHg 69%
19:00 +19°C° 0 mm 2 m/s 742 mmHg 73%
20:00 +17°C° 0 mm 2 m/s 742 mmHg 76%
21:00 +17°C° 0 mm 2 m/s 741 mmHg 79%
22:00 +16°C° 0 mm 3 m/s 741 mmHg 81%
23:00 +14°C° 0 mm 3 m/s 741 mmHg 84%

Après-demain, 17 Mai, Lundi

Heure Température Précipitation Vent Pression Humidité
00:00 +14°C° 0 mm 3 m/s 741 mmHg 84%
01:00 +14°C° 0 mm 4 m/s 741 mmHg 84%
02:00 +14°C° 0 mm 4 m/s 741 mmHg 84%
03:00 +14°C° 0 mm 4 m/s 740 mmHg 86%
04:00 +14°C° 0 mm 4 m/s 740 mmHg 88%
05:00 +14°C° 0 mm 4 m/s 740 mmHg 90%
06:00 +16°C° 0 mm 5 m/s 740 mmHg 84%
07:00 +19°C° 0 mm 6 m/s 739 mmHg 78%
08:00 +21°C° 0 mm 6 m/s 739 mmHg 72%
09:00 +22°C° 0 mm 6 m/s 739 mmHg 67%
10:00 +23°C° 0 mm 6 m/s 739 mmHg 62%
11:00 +26°C° 0 mm 6 m/s 739 mmHg 57%
12:00 +26°C° 0 mm 7 m/s 738 mmHg 57%
13:00 +26°C° 0 mm 7 m/s 738 mmHg 57%
14:00 +27°C° 0 mm 7 m/s 738 mmHg 57%
15:00 +26°C° 0 mm 7 m/s 737 mmHg 60%
16:00 +24°C° 0 mm 7 m/s 737 mmHg 62%
17:00 +24°C° 0 mm 7 m/s 737 mmHg 64%
18:00 +22°C° 0 mm 6 m/s 737 mmHg 69%
19:00 +21°C° 0 mm 6 m/s 737 mmHg 73%
20:00 +20°C° 0 mm 5 m/s 736 mmHg 77%
21:00 +19°C° 0 mm 5 m/s 736 mmHg 79%
22:00 +19°C° 0 mm 5 m/s 736 mmHg 80%
23:00 +17°C° 0 mm 5 m/s 736 mmHg 82%

18 Mai, Mardi

Heure Température Précipitation Vent Pression Humidité
00:00 +17°C° 0 mm 4 m/s 736 mmHg 85%
01:00 +17°C° 0 mm 4 m/s 736 mmHg 89%
02:00 +16°C° 0 mm 3 m/s 736 mmHg 93%
03:00 +15°C° 0 mm 4 m/s 736 mmHg 93%
04:00 +17°C° 0 mm 4 m/s 736 mmHg 93%
05:00 +16°C° 0 mm 5 m/s 736 mmHg 93%
06:00 +17°C° 0 mm 5 m/s 736 mmHg 89%
07:00 +19°C° 0 mm 6 m/s 736 mmHg 85%
08:00 +20°C° 0 mm 7 m/s 736 mmHg 81%
09:00 +20°C° 0 mm 6 m/s 737 mmHg 78%
10:00 +20°C° 0 mm 6 m/s 737 mmHg 76%
11:00 +20°C° 0 mm 6 m/s 737 mmHg 73%
12:00 +20°C° 0.3 mm 5 m/s 737 mmHg 75%
13:00 +20°C° 0.3 mm 4 m/s 737 mmHg 77%
14:00 +19°C° 0.3 mm 4 m/s 737 mmHg 78%
15:00 +19°C° 0.5 mm 4 m/s 737 mmHg 79%
16:00 +20°C° 0.5 mm 4 m/s 737 mmHg 79%
17:00 +20°C° 0.5 mm 4 m/s 737 mmHg 80%
18:00 +18°C° 0.9 mm 3 m/s 737 mmHg 84%
19:00 +17°C° 0.9 mm 3 m/s 736 mmHg 88%
20:00 +16°C° 0.9 mm 3 m/s 736 mmHg 92%
21:00 +14°C° 0.1 mm 3 m/s 736 mmHg 93%
22:00 +14°C° 0.1 mm 3 m/s 736 mmHg 93%
23:00 +13°C° 0.1 mm 3 m/s 736 mmHg 93%

19 Mai, Mercredi

Heure Température Précipitation Vent Pression Humidité
00:00 +13°C° 0.2 mm 3 m/s 736 mmHg 94%
01:00 +13°C° 0.2 mm 3 m/s 735 mmHg 94%
02:00 +13°C° 0.2 mm 3 m/s 735 mmHg 95%
03:00 +13°C° 0.3 mm 3 m/s 735 mmHg 95%
04:00 +13°C° 0.3 mm 3 m/s 735 mmHg 96%
05:00 +13°C° 0.3 mm 4 m/s 735 mmHg 96%
06:00 +13°C° 0.1 mm 4 m/s 735 mmHg 95%
07:00 +13°C° 0.1 mm 4 m/s 735 mmHg 94%
08:00 +13°C° 0.1 mm 4 m/s 736 mmHg 94%
09:00 +13°C° 0.2 mm 4 m/s 736 mmHg 93%
10:00 +13°C° 0.2 mm 5 m/s 737 mmHg 93%
11:00 +13°C° 0.2 mm 5 m/s 737 mmHg 93%
12:00 +14°C° 0.5 mm 6 m/s 737 mmHg 87%
13:00 +15°C° 0.5 mm 6 m/s 738 mmHg 81%
14:00 +16°C° 0.5 mm 6 m/s 738 mmHg 76%
15:00 +16°C° 0.1 mm 5 m/s 738 mmHg 75%
16:00 +16°C° 0.1 mm 5 m/s 738 mmHg 75%
17:00 +17°C° 0.1 mm 4 m/s 738 mmHg 74%
18:00 +16°C° 0 mm 3 m/s 739 mmHg 78%
19:00 +14°C° 0 mm 3 m/s 739 mmHg 82%
20:00 +13°C° 0 mm 2 m/s 739 mmHg 87%
21:00 +13°C° 0 mm 2 m/s 739 mmHg 88%
22:00 +12°C° 0 mm 2 m/s 740 mmHg 89%
23:00 +11°C° 0 mm 1 m/s 740 mmHg 90%

20 Mai, Jeudi

Heure Température Précipitation Vent Pression Humidité
00:00 +11°C° 0 mm 1 m/s 740 mmHg 91%
01:00 +11°C° 0 mm 1 m/s 740 mmHg 91%
02:00 +11°C° 0 mm 1 m/s 740 mmHg 91%
03:00 +11°C° 0 mm 1 m/s 740 mmHg 91%
04:00 +10°C° 0 mm 2 m/s 740 mmHg 91%
05:00 +12°C° 0 mm 2 m/s 740 mmHg 91%
06:00 +13°C° 0 mm 2 m/s 741 mmHg 87%
07:00 +14°C° 0 mm 2 m/s 741 mmHg 82%
08:00 +15°C° 0 mm 2 m/s 741 mmHg 77%
09:00 +16°C° 0.2 mm 3 m/s 741 mmHg 74%
10:00 +17°C° 0.2 mm 3 m/s 741 mmHg 70%
11:00 +18°C° 0.2 mm 3 m/s 741 mmHg 66%
12:00 +18°C° 0.4 mm 3 m/s 741 mmHg 68%
13:00 +17°C° 0.4 mm 4 m/s 741 mmHg 70%
14:00 +17°C° 0.4 mm 4 m/s 740 mmHg 72%
15:00 +17°C° 0.3 mm 4 m/s 740 mmHg 76%
16:00 +16°C° 0.3 mm 3 m/s 740 mmHg 81%
17:00 +14°C° 0.3 mm 3 m/s 740 mmHg 86%
18:00 +13°C° 0.1 mm 3 m/s 740 mmHg 88%
19:00 +13°C° 0.1 mm 3 m/s 740 mmHg 90%
20:00 +12°C° 0.1 mm 3 m/s 740 mmHg 92%
21:00 +12°C° 0 mm 3 m/s 740 mmHg 93%
22:00 +11°C° 0 mm 3 m/s 739 mmHg 94%
23:00 +11°C° 0 mm 3 m/s 739 mmHg 94%
Voir plus

Nous avons besoin de votre consentement

Meteoprog et ses fournisseurs de services peuvent stocker et accéder à des données personnelles telles que des cookies, des identifiants d'appareils ou d'autres technologies similaires sur votre appareil et traiter ces données pour personnaliser le contenu et les publicités, ainsi que pour fournir des fonctionnalités de médias sociaux et analyser le trafic.

  • Stocker et/ou accéder à des informations sur votre appareil

    Des cookies, des identifiants d'appareils ou d'autres informations peuvent être stockés ou accessibles sur votre appareil aux fins indiquées ci-dessus.

  • Annonces et contenus personnalisés, mesure des annonces et des contenus, connaissance de l'audience et développement de produits

    Les annonces et le contenu peuvent être personnalisés en fonction d'un profil. D'autres données peuvent être ajoutées pour mieux personnaliser les annonces et le contenu. Les performances des publicités et du contenu peuvent être mesurées. Il est possible d'obtenir des informations sur le public qui a vu les publicités et le contenu. Ces données peuvent être utilisées pour développer ou améliorer l'expérience de l'utilisateur, les systèmes et les logiciels.

En cliquant sur "J'accepte", vous autorisez l'utilisation de cookies, des identifiants d'appareils, des balises web ou d'autres technologies similaires. Vos paramètres peuvent être modifiés dans le navigateur de votre appareil.

Dans certains cas, des intérêts légitimes peuvent être invoqués plutôt qu'un consentement. Vous pouvez en savoir plus à ce sujet dans notre Politique de confidentialité et de cookies.